Weather History for Thermopolis, WY

Change the Weather History Date:

Tuesday, January 15, 2013

  Actual Average (KWRL) Record (KWRL)
Temperature  
Mean Temperature 16 °F 17 °F  
Max Temperature 30 °F 30 °F 55 °F (2000)
Min Temperature 1 °F 3 °F -21 °F (2007)
Degree Days  
Heating Degree Days 50 48  
Month to date heating degree days 730  
Since 1 July heating degree days 4093  
Cooling Degree Days 0 0  
Month to date cooling degree days 0  
Year to date cooling degree days 0  
Moisture  
Dew Point 6 °F    
Average Humidity 62    
Maximum Humidity 85    
Minimum Humidity 45    
Precipitation  
Precipitation 0.00 in 0.00 in 0.04 in (1989)
Month to date precipitation 0.11  
Year to date precipitation 0.11  
Sea Level Pressure  
Sea Level Pressure 30.08 in    
Wind  
Wind Speed 8 mph (South)    
Max Wind Speed 13 mph    
Max Gust Speed 12 mph    
Visibility 10 miles    
Events      
T = Trace of Precipitation, MM = Missing Value Source: NWS Daily Summary

Daily Weather History Graph

Daily Weather History Graph

Search for Another Location

Airport:

Trip Planner

Search our weather history database for the weather conditions in past years. The results will help you decide how hot, cold, wet, or windy it might be!

Date:

Astronomy

Jan. 15, 2013 Rise Set
Actual Time 7:42 AM MST 5:02 PM MST
Civil Twilight 7:10 AM MST 5:34 PM MST
Nautical Twilight 6:35 AM MST 6:09 PM MST
Astronomical Twilight 6:01 AM MST 6:44 PM MST
Moon 9:40 AM MST (1/15) 10:06 PM MST (1/15)
Length of Visible Light 10h 23m
Length of Day
9h 20m
Waxing Crescent, 20% of the Moon is Illuminated
Jan 15
Waxing Crescent
Jan 18
First Quarter
Jan 26
Full
Feb 3
Last Quarter
Feb 10
New

Hourly Weather History & Observations

Time (MST) Temp. Windchill Dew Point Humidity Pressure Visibility Wind Dir Wind Speed Gust Speed Precip Events Conditions
12:15 AM 3.2 °F -12.2 °F -0.4 °F 85% 29.95 in - SE 10.4 mph - N/A   Unknown
12:35 AM 3.2 °F -12.2 °F -0.4 °F 85% 29.96 in - SE 10.4 mph - N/A   Overcast
12:55 AM 5.0 °F -10.8 °F 1.4 °F 85% 29.96 in - SE 11.5 mph - N/A   Unknown
1:15 AM 3.2 °F -11.3 °F -0.4 °F 85% 29.97 in - SE 9.2 mph - N/A   Unknown
1:35 AM 3.2 °F -9.1 °F -0.4 °F 85% 29.98 in - SE 6.9 mph 11.5 mph N/A   Unknown
1:55 AM 3.2 °F -9.1 °F -0.4 °F 85% 29.98 in - SSE 6.9 mph - N/A   Overcast
2:15 AM 1.4 °F -11.3 °F -2.2 °F 85% 29.97 in - SSE 6.9 mph - N/A   Overcast
2:35 AM 3.2 °F -11.3 °F -0.4 °F 85% 29.99 in - SSE 9.2 mph - N/A   Overcast
2:55 AM 5.0 °F -9.1 °F 1.4 °F 85% 29.99 in - SSE 9.2 mph - N/A   Overcast
3:15 AM 6.8 °F -6.9 °F 1.4 °F 79% 29.98 in - SE 9.2 mph - N/A   Overcast
3:55 AM 5.0 °F -9.1 °F -0.4 °F 78% 30.00 in - South 9.2 mph - N/A   Overcast
4:15 AM 5.0 °F -9.1 °F -2.2 °F 72% 30.00 in - South 9.2 mph - N/A   Overcast
4:35 AM 5.0 °F -9.1 °F -2.2 °F 72% 30.00 in - South 9.2 mph - N/A   Overcast
4:55 AM 6.8 °F -7.8 °F -0.4 °F 72% 30.00 in - SSW 10.4 mph - N/A   Overcast
5:15 AM 8.6 °F -5.5 °F -0.4 °F 67% 30.01 in - South 10.4 mph - N/A   Overcast
5:35 AM 10.4 °F 0.8 °F -0.4 °F 62% 30.00 in - SSE 5.8 mph - N/A   Overcast
5:55 AM 8.6 °F -5.5 °F -4.0 °F 57% 30.00 in - South 10.4 mph - N/A   Mostly Cloudy
6:15 AM 6.8 °F -7.8 °F -4.0 °F 61% 30.00 in - SSE 10.4 mph - N/A   Mostly Cloudy
6:35 AM 6.8 °F -5.9 °F -2.2 °F 67% 30.02 in - South 8.1 mph - N/A   Mostly Cloudy
6:55 AM 10.4 °F -1.5 °F -0.4 °F 62% 30.02 in - South 8.1 mph - N/A   Scattered Clouds
7:15 AM 12.2 °F 4.3 °F -2.2 °F 53% 30.04 in - SSE 4.6 mph - N/A   Mostly Cloudy
7:35 AM 14.0 °F 6.5 °F -0.4 °F 53% 30.05 in - SSE 4.6 mph - N/A   Overcast
7:55 AM 15.8 °F 8.6 °F -0.4 °F 49% 30.05 in - SSE 4.6 mph - N/A   Overcast
8:15 AM 17.6 °F 9.3 °F -0.4 °F 45% 30.06 in - SE 5.8 mph - N/A   Overcast
8:35 AM 17.6 °F 8.2 °F 1.4 °F 49% 30.06 in - SSE 6.9 mph - N/A   Overcast
8:55 AM 15.8 °F 6.1 °F -0.4 °F 49% 30.07 in - SSE 6.9 mph - N/A   Overcast
9:15 AM 17.6 °F 7.3 °F -0.4 °F 45% 30.10 in - South 8.1 mph - N/A   Overcast
9:35 AM 19.4 °F 9.5 °F 5.0 °F 54% 30.08 in - SSE 8.1 mph - N/A   Overcast
9:55 AM 15.8 °F 4.2 °F -0.4 °F 49% 30.08 in - South 9.2 mph - N/A   Overcast
10:15 AM 12.2 °F 1.7 °F -2.2 °F 53% 30.08 in - SSE 6.9 mph - N/A   Overcast
10:35 AM 10.4 °F -3.3 °F 1.4 °F 67% 30.08 in - SSE 10.4 mph - N/A   Overcast
10:55 AM 10.4 °F -3.3 °F -0.4 °F 62% 30.09 in - SSE 10.4 mph - N/A   Overcast
11:15 AM 17.6 °F 7.3 °F 5.0 °F 58% 30.08 in - South 8.1 mph - N/A   Overcast
11:35 AM 24.8 °F 17.9 °F 8.6 °F 50% 30.08 in - South 5.8 mph - N/A   Overcast
11:55 AM 26.6 °F 18.2 °F 10.4 °F 51% 30.08 in - South 8.1 mph - N/A   Mostly Cloudy
12:15 PM 24.8 °F 16.9 °F 8.6 °F 50% 30.08 in - South 6.9 mph - N/A   Scattered Clouds
12:55 PM 30.2 °F 26.7 °F 12.2 °F 47% 30.07 in 10.0 mi South 3.5 mph - N/A   Overcast
1:15 PM 28.4 °F - 10.4 °F 47% 30.08 in 10.0 mi Calm Calm - N/A   Overcast
1:35 PM 15.8 °F 8.6 °F 5.0 °F 62% 30.07 in 10.0 mi South 4.6 mph - N/A   Overcast
1:55 PM 14.0 °F 2.9 °F 3.2 °F 62% 30.08 in 10.0 mi SE 8.1 mph - N/A   Mostly Cloudy
2:15 PM 15.8 °F 7.2 °F 3.2 °F 58% 30.08 in 10.0 mi SE 5.8 mph - N/A   Mostly Cloudy
2:35 PM 17.6 °F 8.2 °F 5.0 °F 58% 30.08 in 10.0 mi SSE 6.9 mph - N/A   Scattered Clouds
2:55 PM 19.4 °F 7.2 °F 5.0 °F 54% 30.08 in 10.0 mi SSE 11.5 mph - N/A   Scattered Clouds
3:15 PM 19.4 °F 9.5 °F 5.0 °F 54% 30.10 in 10.0 mi SSE 8.1 mph - N/A   Scattered Clouds
3:35 PM 17.6 °F 10.7 °F 5.0 °F 58% 30.11 in 10.0 mi South 4.6 mph - N/A   Clear
3:55 PM 28.4 °F 21.2 °F 14.0 °F 55% 30.11 in 10.0 mi West 6.9 mph - N/A   Scattered Clouds
4:15 PM 28.4 °F 19.7 °F 14.0 °F 55% 30.12 in 10.0 mi WNW 9.2 mph - N/A   Clear
4:35 PM 28.4 °F 19.7 °F 14.0 °F 55% 30.12 in 10.0 mi NW 9.2 mph - N/A   Clear
5:15 PM 30.2 °F 23.4 °F 14.0 °F 51% 30.14 in 10.0 mi WNW 6.9 mph - N/A   Overcast
5:35 PM 28.4 °F 24.6 °F 14.0 °F 55% 30.14 in 10.0 mi WNW 3.5 mph - N/A   Overcast
5:55 PM 26.6 °F 21.2 °F 14.0 °F 59% 30.15 in 10.0 mi West 4.6 mph - N/A   Overcast
6:15 PM 28.4 °F 21.2 °F 15.8 °F 59% 30.16 in 10.0 mi West 6.9 mph - N/A   Overcast
6:35 PM 28.4 °F 23.3 °F 14.0 °F 55% 30.16 in 10.0 mi NW 4.6 mph - N/A   Overcast
6:55 PM 21.2 °F - 8.6 °F 58% 30.17 in 10.0 mi Calm Calm - N/A   Overcast
7:15 PM 26.6 °F 21.2 °F 14.0 °F 59% 30.18 in 10.0 mi WNW 4.6 mph - N/A   Scattered Clouds
7:35 PM 26.6 °F 20.0 °F 14.0 °F 59% 30.18 in 10.0 mi West 5.8 mph - N/A   Scattered Clouds
8:15 PM 26.6 °F 16.2 °F 15.8 °F 64% 30.19 in 10.0 mi WNW 11.5 mph - N/A   Scattered Clouds
8:35 PM 26.6 °F 17.5 °F 14.0 °F 59% 30.18 in 10.0 mi West 9.2 mph - N/A   Mostly Cloudy
8:55 PM 26.6 °F 17.5 °F 15.8 °F 64% 30.19 in 10.0 mi West 9.2 mph - N/A   Overcast
9:15 PM 28.4 °F 19.7 °F 15.8 °F 59% 30.20 in 10.0 mi West 9.2 mph - N/A   Overcast
9:35 PM 28.4 °F 20.4 °F 15.8 °F 59% 30.20 in 10.0 mi West 8.1 mph - N/A   Mostly Cloudy
9:55 PM 30.2 °F 26.7 °F 17.6 °F 60% 30.20 in 10.0 mi WNW 3.5 mph - N/A   Mostly Cloudy
10:15 PM 30.2 °F 25.4 °F 17.6 °F 60% 30.20 in 10.0 mi West 4.6 mph - N/A   Mostly Cloudy
10:35 PM 30.2 °F 26.7 °F 17.6 °F 60% 30.20 in 10.0 mi WSW 3.5 mph - N/A   Scattered Clouds
11:15 PM 26.6 °F 18.2 °F 14.0 °F 59% 30.20 in 10.0 mi South 8.1 mph - N/A   Clear
11:35 PM 28.4 °F 18.5 °F 14.0 °F 55% 30.20 in 10.0 mi South 11.5 mph - N/A   Scattered Clouds
11:55 PM 30.2 °F 20.2 °F 14.0 °F 51% 30.20 in 10.0 mi South 12.7 mph - N/A   Scattered Clouds